Wind_Speed
34 33 34 35 35 35 37 38 39 38 39 37 38 39 39 39 39 39 39 39 39 40 41 41 42 42 43 43 43 44 44 45 46 46 47 48 49 49 50 51 51 51 52 52
34 33 34 36 36 36 37 38 39 40 39 38 40 41 40 40 39 38 38 38 38 39 40 41 42 42 42 42 43 44 44 44 45 45 46 47 47 48 49 50 50 51 52 52
35 35 36 36 34 36 37 37 39 40 39 39 40 40 41 41 40 39 39 39 39 39 40 40 40 40 41 41 42 42 43 44 44 45 45 46 47 47 48 49 49 49 51 52
36 36 37 35 34 35 36 36 38 38 38 39 40 39 39 40 40 39 39 39 40 39 39 40 40 40 40 41 41 42 42 43 44 45 46 47 47 48 48 49 50 50 51 51
36 37 36 33 33 34 36 36 36 37 38 39 39 39 39 38 38 38 38 38 39 39 39 39 40 40 40 40 40 41 42 42 43 45 46 46 47 48 48 49 49 50 51 51
35 37 36 34 34 35 36 36 35 36 37 37 37 38 37 37 38 38 38 38 39 39 39 39 40 40 40 40 41 41 42 43 44 44 45 45 46 47 47 48 49 49 49 49
34 36 36 35 35 35 36 36 36 36 37 37 37 37 36 37 37 37 37 38 38 39 39 39 39 40 40 41 42 42 43 43 43 43 44 45 45 45 46 47 47 47 48 47
33 35 35 34 34 34 35 35 35 36 36 37 36 36 36 35 36 36 37 37 38 38 39 39 40 40 40 41 42 43 43 43 43 43 43 44 44 45 45 46 46 45 45 45
32 33 34 34 34 33 34 34 34 35 35 35 35 35 35 35 35 35 36 37 37 38 39 39 40 40 40 41 42 42 43 44 44 44 44 44 44 44 45 45 45 44 44 44
32 32 32 33 33 33 33 33 33 33 34 35 35 35 35 35 35 35 35 36 37 37 38 39 40 40 41 41 42 42 43 43 43 43 43 44 44 44 44 44 44 44 44 44
31 31 32 32 33 33 34 34 34 34 34 34 34 34 35 35 35 35 35 34 35 36 37 38 38 39 40 41 41 42 42 42 42 42 42 43 43 43 43 43 42 43 44 44
31 31 31 31 32 33 33 34 34 34 34 34 34 34 34 35 35 34 34 34 34 35 36 37 38 38 39 40 41 41 41 41 42 42 42 42 42 43 43 42 42 42 43 44
32 31 31 31 31 32 33 33 33 33 33 33 33 34 34 34 35 34 34 34 34 35 35 36 37 38 38 39 40 40 40 40 40 40 41 41 41 41 41 42 42 42 42 43
32 32 33 32 32 32 33 33 33 33 33 33 34 34 34 34 34 34 35 35 35 35 36 36 37 38 38 38 39 39 39 39 39 39 40 40 40 40 39 40 40 41 42 43
32 32 33 33 33 33 33 33 33 33 33 33 34 34 34 34 34 34 35 36 36 37 37 37 37 37 37 38 38 38 38 38 39 39 39 38 38 38 38 38 38 39 40 41
31 32 32 32 32 33 34 34 34 34 34 33 33 33 33 33 33 34 35 35 36 37 37 37 36 36 36 36 36 36 37 37 38 38 37 37 36 36 37 37 37 37 38 38
31 32 32 32 32 32 33 33 33 33 33 32 32 32 32 32 32 33 33 34 34 35 35 35 36 36 35 35 35 35 35 35 36 36 35 35 35 35 36 36 36 36 36 36
32 32 32 32 32 31 31 32 32 32 32 32 32 32 32 32 31 31 32 32 32 33 33 34 34 35 35 34 34 34 34 34 34 34 34 34 34 34 34 35 35 34 34 34
33 33 33 33 33 33 32 32 32 32 32 32 31 31 31 31 31 31 31 31 31 32 32 33 33 33 33 33 33 33 33 33 32 33 33 33 33 33 32 32 32 32 32 32
34 33 33 33 32 32 32 32 32 32 31 31 31 31 31 31 31 31 31 32 32 32 33 33 33 33 33 33 33 33 33 32 32 33 32 32 32 32 31 31 30 29 29 29
33 33 33 32 32 32 32 32 32 31 31 30 31 31 31 32 32 32 32 32 33 33 33 34 34 34 33 33 33 33 33 33 33 32 32 32 32 31 31 30 29 28 28 28
32 32 32 32 31 31 31 31 31 32 31 31 31 31 32 32 32 32 32 32 32 33 33 34 34 34 34 33 33 33 33 32 32 32 32 32 31 31 30 29 29 29 28 28
31 31 31 31 31 30 30 31 31 31 31 31 32 32 32 32 32 32 32 32 32 33 33 34 34 33 33 33 32 32 32 32 32 32 31 31 30 30 29 29 29 28 28 29
32 31 31 31 31 30 30 31 31 31 31 32 32 32 32 31 32 32 32 33 33 32 32 33 33 32 32 32 32 32 31 31 30 30 30 30 29 29 28 28 28 28 28 28
32 32 32 32 32 31 31 31 31 31 32 32 32 32 32 32 32 32 32 32 32 31 31 31 31 31 30 30 30 30 30 30 30 29 28 28 28 28 27 27 27 27 27 27
32 32 33 33 33 33 33 33 33 32 32 32 33 33 33 32 32 32 32 31 31 31 30 30 30 30 29 29 29 29 29 28 28 28 28 28 28 27 27 27 27 27 27 27
32 32 32 32 32 32 32 33 33 32 32 33 33 33 33 32 32 32 31 31 31 31 31 30 30 30 29 28 28 28 28 28 28 27 27 27 27 27 27 27 27 27 27 27
Wind_Direction
278 277 275 273 273 274 274 275 275 275 275 275 277 277 276 275 275 274 272 270 269 266 265 265 266 266 266 266 266 267 267 266 267 267 267 268 268 267 266 264 264 264 264 263
278 276 276 274 274 275 275 275 276 276 275 276 277 277 276 275 275 274 273 271 270 268 267 267 267 267 267 267 267 267 268 268 268 268 268 267 267 267 267 266 265 265 264 264
279 277 277 277 278 277 277 278 278 277 277 276 276 277 276 275 275 274 272 271 270 270 269 268 269 269 268 268 268 268 268 268 268 268 268 268 267 267 267 267 265 265 265 265
281 281 280 282 281 280 279 279 279 279 278 278 277 278 277 277 276 275 273 271 270 271 270 270 270 270 270 270 270 271 270 270 269 270 270 270 269 269 268 267 266 266 266 266
282 282 282 282 284 283 282 281 281 281 281 281 280 279 277 276 276 275 273 272 270 270 270 270 270 270 271 272 272 273 273 273 272 271 272 271 271 271 270 269 268 268 267 267
283 284 284 286 286 287 285 283 283 282 282 283 283 281 279 277 276 275 273 272 271 270 270 270 271 271 272 273 273 274 274 274 274 273 273 273 273 272 271 271 270 270 269 268
283 285 287 290 289 288 287 286 284 284 283 283 283 282 280 278 277 276 274 273 272 271 271 271 272 273 273 274 274 275 275 275 274 275 274 274 274 273 272 272 271 271 270 268
285 286 289 291 290 289 289 287 284 284 283 283 283 282 282 280 278 276 274 273 272 271 271 272 273 274 275 275 276 276 276 276 275 275 275 275 274 274 274 273 272 272 270 268
287 287 288 288 287 287 287 288 286 285 284 282 281 281 281 281 280 277 275 273 273 272 272 273 274 275 276 277 277 277 276 276 276 276 276 275 275 275 274 274 273 271 270 268
288 288 288 287 287 287 287 287 287 285 284 283 282 282 282 281 281 280 277 275 274 273 273 274 275 276 276 278 278 278 277 277 277 277 276 276 276 276 275 275 273 271 270 269
289 290 287 286 287 288 287 286 287 286 285 284 284 283 283 282 281 281 279 278 277 276 275 276 277 277 277 278 278 278 279 279 279 278 278 277 276 276 276 275 274 273 271 271
289 289 289 289 288 289 290 288 288 288 287 286 286 285 283 283 282 282 281 280 279 279 279 279 279 279 280 280 280 279 279 279 279 278 278 278 277 276 276 275 274 273 273 272
288 287 287 288 289 290 291 291 290 290 289 287 287 286 285 284 283 283 282 282 283 282 282 281 281 281 282 281 281 280 280 279 279 279 279 278 278 277 276 276 275 274 274 273
288 288 287 286 288 290 291 291 291 291 290 289 288 287 287 285 284 283 282 282 283 284 284 283 283 283 283 282 282 281 281 280 280 280 280 279 277 276 277 277 275 274 274 274
286 286 285 285 286 288 290 291 292 292 291 289 289 288 288 287 285 284 284 283 283 284 285 284 284 283 283 283 283 282 282 281 281 281 281 279 278 277 277 278 277 276 275 275
286 286 286 287 287 287 289 290 291 291 292 291 290 289 289 288 287 286 285 284 284 285 285 284 284 284 284 284 284 284 282 282 282 281 281 280 279 279 279 279 279 278 276 275
287 287 287 287 288 288 289 290 291 292 291 292 291 290 289 288 288 288 287 286 287 286 286 285 285 285 285 285 285 285 284 284 283 282 282 281 281 281 281 280 279 278 277 275
288 288 288 287 286 287 288 289 290 291 292 292 292 292 290 289 289 289 288 288 288 289 288 287 286 286 286 286 286 285 285 285 284 283 283 283 284 283 282 281 280 278 276 275
289 288 288 287 287 286 287 287 288 290 291 292 292 291 291 290 290 290 290 289 289 290 290 289 288 286 286 286 285 286 286 285 284 284 285 285 285 284 284 283 281 279 278 276
288 287 287 288 288 288 288 288 289 290 291 291 291 292 292 292 291 290 290 290 290 291 291 291 290 288 287 286 286 286 285 284 284 284 285 284 284 284 284 283 282 281 279 277
288 287 286 287 288 289 289 289 289 290 291 292 292 292 292 293 293 292 292 291 292 292 291 292 291 290 288 287 286 286 285 284 284 283 283 283 283 283 283 283 281 280 279 278
287 287 286 286 287 288 289 290 290 290 290 291 292 293 292 293 293 293 293 293 293 293 292 292 291 290 288 287 286 285 285 284 283 283 283 283 283 283 282 280 279 279 279 279
287 287 287 287 288 289 289 290 290 290 290 291 291 292 292 292 292 293 293 294 294 294 293 293 292 290 288 287 286 285 285 284 284 284 283 284 284 283 281 280 279 278 278 278
286 286 286 287 288 289 290 290 291 291 290 290 291 291 291 291 292 293 294 294 295 295 294 294 294 292 289 287 286 285 285 285 284 283 283 283 283 282 281 279 278 278 278 279
286 285 285 285 286 288 289 291 291 290 290 291 291 291 291 291 292 293 294 295 295 296 296 295 295 294 292 289 287 286 286 284 283 283 283 284 283 283 282 281 279 278 278 279
287 287 287 286 286 287 288 289 289 290 290 290 291 291 291 291 292 293 294 295 296 296 296 296 296 295 294 291 289 288 287 285 283 282 283 283 283 283 282 281 280 279 279 279
288 288 288 288 287 288 289 289 289 289 289 290 291 291 291 291 291 292 293 294 294 295 295 295 295 295 294 292 291 289 287 285 284 283 283 282 282 282 281 281 281 280 280 280
Height
5572 5571 5570 5569 5569 5567 5566 5564 5563 5564 5563 5565 5563 5562 5561 5560 5559 5558 5558 5558 5557 5557 5557 5557 5558 5558 5558 5558 5558 5558 5558 5557 5557 5557 5557 5557 5557 5557 5557 5557 5558 5559 5560 5560
5563 5562 5560 5559 5559 5558 5556 5555 5553 5552 5553 5554 5551 5550 5549 5549 5548 5548 5547 5546 5546 5546 5546 5546 5546 5546 5546 5546 5545 5545 5545 5545 5544 5544 5544 5543 5543 5543 5543 5543 5543 5544 5545 5546
5553 5553 5549 5550 5552 5549 5547 5546 5544 5543 5544 5542 5541 5539 5538 5538 5537 5536 5536 5535 5535 5535 5534 5534 5534 5534 5534 5533 5533 5533 5532 5532 5531 5531 5530 5530 5529 5529 5529 5529 5529 5530 5530 5531
5543 5543 5540 5545 5541 5539 5537 5536 5534 5533 5532 5531 5530 5528 5527 5527 5526 5525 5525 5524 5524 5523 5523 5523 5522 5522 5522 5521 5521 5520 5520 5519 5519 5518 5517 5517 5516 5516 5515 5515 5515 5515 5515 5516
5534 5531 5531 5534 5533 5529 5527 5527 5525 5523 5521 5520 5519 5518 5517 5516 5515 5514 5513 5513 5512 5512 5512 5512 5511 5510 5510 5510 5509 5508 5507 5507 5506 5505 5504 5503 5503 5502 5501 5501 5500 5500 5500 5500
5525 5522 5522 5526 5523 5519 5518 5517 5516 5513 5511 5510 5508 5507 5508 5505 5504 5503 5502 5502 5501 5501 5500 5500 5500 5499 5498 5498 5497 5496 5495 5494 5493 5492 5491 5490 5489 5488 5487 5486 5486 5485 5485 5485
5517 5513 5513 5516 5512 5510 5509 5508 5505 5503 5501 5499 5497 5497 5496 5494 5493 5492 5491 5491 5490 5489 5489 5489 5488 5487 5487 5486 5485 5484 5482 5481 5480 5478 5477 5476 5475 5474 5473 5473 5472 5472 5471 5471
5509 5506 5508 5506 5503 5501 5499 5496 5494 5492 5490 5489 5487 5486 5485 5483 5482 5481 5480 5480 5479 5478 5478 5477 5476 5476 5475 5474 5473 5471 5470 5468 5467 5466 5464 5463 5462 5461 5460 5459 5458 5458 5457 5457
5501 5501 5499 5496 5493 5491 5488 5486 5484 5482 5480 5478 5477 5476 5475 5473 5472 5471 5470 5469 5468 5467 5466 5465 5464 5464 5463 5461 5460 5459 5457 5456 5454 5453 5451 5450 5449 5448 5447 5446 5445 5444 5444 5444
5492 5491 5489 5486 5484 5481 5479 5477 5474 5472 5470 5468 5467 5466 5465 5463 5462 5460 5459 5458 5457 5456 5455 5454 5453 5452 5450 5449 5448 5446 5445 5443 5441 5440 5438 5437 5436 5434 5433 5432 5431 5431 5430 5430
5483 5482 5479 5477 5474 5472 5470 5467 5465 5462 5460 5459 5457 5456 5455 5453 5452 5450 5449 5447 5446 5445 5444 5442 5441 5440 5438 5437 5435 5434 5432 5430 5429 5427 5425 5424 5423 5421 5420 5419 5418 5417 5417 5417
5474 5473 5470 5468 5465 5463 5461 5458 5456 5453 5451 5449 5447 5446 5444 5443 5442 5440 5439 5437 5435 5434 5433 5431 5430 5428 5426 5425 5423 5421 5420 5418 5416 5415 5413 5411 5410 5408 5406 5406 5405 5404 5403 5403
5465 5463 5461 5458 5456 5454 5452 5449 5447 5444 5442 5439 5438 5436 5434 5433 5431 5430 5428 5427 5425 5423 5422 5420 5418 5417 5415 5413 5411 5409 5407 5406 5404 5402 5401 5399 5397 5396 5395 5393 5392 5391 5390 5389
5456 5453 5451 5449 5447 5445 5442 5440 5437 5435 5432 5430 5428 5426 5424 5423 5421 5419 5418 5416 5415 5413 5411 5409 5407 5405 5403 5401 5399 5397 5395 5393 5392 5390 5388 5387 5385 5383 5382 5381 5379 5378 5377 5376
5446 5444 5442 5440 5438 5435 5433 5430 5428 5425 5423 5420 5418 5416 5414 5412 5411 5409 5407 5406 5404 5402 5400 5398 5396 5394 5392 5390 5388 5386 5384 5382 5380 5378 5376 5374 5373 5371 5370 5368 5367 5366 5364 5364
5437 5434 5432 5430 5428 5426 5424 5421 5419 5416 5413 5410 5408 5406 5404 5402 5400 5399 5397 5395 5393 5391 5389 5387 5385 5383 5381 5379 5377 5374 5372 5370 5369 5367 5365 5363 5361 5360 5358 5356 5355 5353 5352 5351
5427 5425 5423 5421 5419 5416 5414 5412 5409 5406 5404 5401 5399 5397 5395 5393 5391 5389 5387 5385 5383 5380 5378 5376 5374 5372 5370 5368 5366 5364 5362 5360 5358 5356 5354 5352 5350 5348 5346 5345 5343 5341 5340 5339
5418 5415 5413 5411 5409 5407 5405 5402 5400 5398 5395 5393 5390 5388 5385 5383 5381 5379 5377 5375 5373 5370 5368 5366 5364 5362 5359 5357 5355 5353 5351 5349 5347 5345 5343 5341 5339 5337 5335 5333 5332 5330 5329 5328
5408 5406 5404 5401 5399 5397 5395 5393 5391 5389 5386 5383 5381 5379 5376 5374 5372 5369 5367 5365 5363 5361 5359 5356 5354 5351 5349 5347 5345 5343 5341 5339 5337 5335 5333 5331 5329 5327 5325 5323 5321 5320 5318 5317
5398 5396 5394 5392 5389 5387 5385 5384 5382 5379 5377 5374 5372 5370 5367 5365 5362 5360 5358 5356 5353 5351 5349 5346 5344 5341 5339 5337 5335 5333 5331 5329 5327 5325 5323 5321 5319 5317 5315 5313 5312 5310 5309 5308
5388 5386 5384 5382 5380 5378 5376 5374 5372 5370 5368 5365 5363 5361 5358 5356 5353 5351 5348 5346 5344 5341 5339 5336 5333 5331 5329 5327 5324 5322 5320 5318 5316 5315 5313 5311 5309 5307 5306 5304 5302 5301 5300 5299
5378 5376 5374 5372 5370 5368 5366 5364 5362 5360 5358 5356 5354 5351 5349 5346 5344 5341 5338 5336 5334 5331 5329 5326 5323 5320 5318 5316 5314 5312 5310 5308 5306 5304 5303 5301 5299 5297 5296 5294 5293 5292 5291 5290
5368 5367 5365 5363 5361 5359 5357 5355 5353 5351 5349 5346 5344 5342 5339 5336 5334 5332 5329 5326 5324 5321 5318 5315 5313 5310 5308 5306 5304 5302 5300 5298 5296 5294 5293 5291 5289 5288 5286 5285 5283 5282 5281 5280
5359 5357 5355 5354 5352 5350 5348 5345 5343 5341 5339 5336 5334 5332 5329 5327 5324 5322 5319 5316 5314 5311 5308 5305 5302 5300 5297 5295 5293 5292 5290 5288 5286 5284 5283 5281 5280 5278 5277 5275 5274 5273 5272 5271
5349 5347 5346 5344 5342 5340 5338 5336 5334 5331 5329 5327 5324 5322 5319 5317 5315 5312 5309 5307 5304 5301 5298 5295 5293 5290 5288 5286 5284 5282 5280 5278 5276 5275 5273 5272 5270 5269 5267 5266 5265 5264 5263 5262
5339 5337 5335 5333 5332 5330 5328 5326 5324 5321 5319 5317 5314 5312 5309 5307 5305 5302 5300 5297 5295 5292 5289 5286 5284 5281 5279 5277 5274 5272 5270 5268 5266 5265 5264 5262 5261 5260 5258 5257 5256 5255 5254 5253
5329 5327 5325 5323 5321 5319 5317 5315 5313 5311 5309 5307 5304 5302 5299 5297 5295 5292 5290 5288 5285 5283 5280 5277 5275 5272 5270 5267 5265 5263 5261 5259 5257 5256 5255 5253 5252 5251 5249 5248 5247 5246 5245 5243